RH
34 32 32 33 33 33 34 36 42 44 44 49 55 60 62 64 69 74 77 77 75 74 75 71 61 57 55 56 57 56 55 52 49 46 42 36 31 29 26 21 21 23 23 19 15 11 7 4 3 3 3 3
35 32 33 34 36 38 39 40 45 49 51 53 58 62 65 67 71 73 74 74 74 73 73 69 61 56 55 56 57 56 54 51 49 45 41 34 29 26 25 20 17 17 18 17 14 10 7 5 4 3 3 3
34 34 36 37 40 44 46 47 48 53 58 59 60 63 65 66 68 70 70 72 73 72 71 66 60 57 56 57 57 55 53 50 48 44 39 32 26 23 23 20 15 11 11 14 14 11 8 5 4 3 3 2
36 39 43 46 49 53 56 56 56 59 65 67 66 66 66 67 67 69 70 71 72 70 67 63 59 58 58 57 55 53 51 49 47 42 36 30 25 23 22 21 17 12 9 11 13 11 9 7 5 4 3 2
38 43 49 54 58 62 65 66 65 66 69 73 73 71 70 71 70 71 71 71 71 68 65 61 59 58 58 56 53 51 50 48 45 40 34 28 26 25 23 21 18 14 11 10 11 12 10 8 6 4 3 3
40 45 51 58 63 67 70 72 72 72 72 74 76 76 75 75 75 74 73 72 70 67 64 60 58 58 56 54 52 50 48 47 43 37 32 27 27 27 26 23 19 16 14 12 11 11 11 9 7 5 4 3
44 48 52 59 65 70 73 76 77 77 76 77 78 78 79 79 78 76 74 72 70 65 61 58 57 56 54 52 50 49 48 45 40 35 31 29 29 29 29 26 23 19 17 15 13 12 11 10 8 6 4 3
46 49 53 57 64 71 76 79 81 80 80 80 80 79 80 80 79 78 75 72 68 63 59 57 56 55 53 51 50 49 47 43 39 36 34 33 32 32 31 29 27 25 21 18 15 13 11 11 9 7 5 4
40 44 48 53 58 66 73 79 83 85 84 83 83 82 81 80 79 76 73 69 65 62 59 59 58 56 54 53 53 51 48 44 41 40 39 39 38 36 34 33 32 30 27 23 19 15 12 11 10 9 7 5
31 34 39 44 50 57 65 73 79 83 85 85 85 84 81 78 76 73 70 66 64 62 61 61 60 58 56 56 56 53 50 47 43 43 44 43 42 40 38 37 35 34 33 30 26 21 16 13 11 9 8 7
28 29 31 36 41 48 55 62 69 75 78 81 83 84 81 75 73 72 69 66 65 64 64 64 62 60 57 56 56 53 51 48 44 44 45 46 45 43 41 40 38 37 37 36 33 28 23 18 13 11 9 8
29 28 29 31 34 40 45 51 59 65 70 76 80 83 83 78 74 73 72 70 70 69 68 66 64 61 58 56 54 53 50 48 45 45 47 48 47 46 45 42 41 40 40 39 37 35 31 26 20 14 11 9
31 30 29 30 30 33 38 44 50 56 65 74 80 84 85 83 80 77 76 74 74 74 71 69 66 63 59 56 54 53 51 49 47 48 49 50 50 48 47 45 43 42 42 42 41 40 38 34 29 23 17 12
31 31 31 30 30 30 33 37 41 46 54 65 75 82 84 84 82 80 79 78 77 75 72 70 67 64 61 59 57 55 52 50 49 51 52 52 52 50 49 48 46 45 45 45 44 44 43 41 38 33 26 19
32 31 31 31 31 31 31 33 36 39 44 52 62 73 80 82 81 80 79 78 77 75 72 70 68 65 63 63 61 59 56 53 52 52 54 54 53 52 52 52 51 50 50 49 48 48 47 46 44 40 35 27
32 31 31 31 31 32 32 33 34 35 37 41 48 57 67 74 78 78 76 75 75 74 72 70 69 69 68 68 66 63 60 57 55 55 55 55 55 55 56 56 56 55 54 53 53 51 51 50 49 46 43 36
31 31 31 32 33 35 35 35 35 34 34 34 36 40 47 56 64 69 69 68 70 71 70 69 70 71 71 71 70 68 65 62 60 59 58 58 58 58 59 60 60 59 59 58 56 55 54 53 53 51 49 45
32 32 32 33 34 36 36 35 35 34 33 32 31 31 32 35 40 45 46 47 51 56 59 62 65 67 70 73 74 72 69 66 64 62 61 60 60 60 61 62 63 63 62 61 60 59 58 57 56 56 55 53
33 34 34 34 34 35 34 33 33 32 32 32 31 30 30 29 29 29 30 30 33 37 41 45 49 54 60 68 75 76 75 72 69 66 65 63 62 62 64 65 65 66 65 64 62 61 61 61 60 60 59 58
34 33 33 33 32 32 32 31 30 30 30 29 29 28 28 27 27 27 27 27 28 30 33 36 40 43 47 55 66 74 78 77 75 73 70 69 68 66 66 68 68 68 68 66 65 64 64 64 64 64 64 63
32 31 31 31 32 32 33 33 33 33 32 31 29 28 27 26 25 25 25 26 27 28 30 32 36 40 42 46 55 66 77 83 84 83 81 78 75 73 71 71 71 71 70 70 69 68 67 67 67 67 67 67
33 33 33 33 33 34 34 34 34 33 32 32 31 30 29 28 27 27 27 27 27 29 31 33 37 42 46 49 53 60 68 78 85 85 88 89 85 81 80 78 77 75 74 73 71 70 70 70 69 68 68 68
34 33 33 32 30 29 28 28 27 27 27 27 26 26 26 26 27 28 29 30 32 34 38 41 46 52 59 62 62 62 61 68 77 77 84 96 96 89 86 85 84 83 80 76 73 73 73 72 71 70 70 70
35 34 34 33 32 32 31 30 29 28 27 26 25 24 23 23 25 26 28 31 34 39 43 48 53 60 69 76 75 73 71 73 77 77 81 93 99 98 94 90 90 90 87 82 79 78 77 76 76 75 74 74
38 38 38 37 38 37 36 35 34 32 30 29 28 27 26 26 27 28 30 31 35 39 44 50 56 62 71 82 87 85 83 82 83 85 86 86 89 93 96 94 94 94 93 90 87 84 82 80 79 77 78 78
40 40 39 40 40 40 39 37 36 35 33 32 31 31 31 30 31 32 33 35 37 40 44 49 54 60 68 80 91 93 91 90 91 92 90 87 85 86 89 91 92 92 91 92 91 89 88 86 83 81 81 81
42 42 41 42 42 41 40 38 37 36 36 35 34 35 34 34 34 35 37 38 40 42 44 48 52 58 65 75 86 93 94 94 94 94 93 93 94 93 94 95 93 93 92 93 93 92 91 89 88 88 87 86
46 45 44 44 43 43 42 40 39 38 38 38 38 38 37 36 36 38 40 40 41 42 43 46 48 52 58 65 74 82 89 92 93 95 96 97 97 94 96 98 97 97 98 97 96 96 94 93 92 93 92 88
52 50 49 47 46 45 44 42 41 40 39 39 39 38 36 36 39 41 42 42 42 42 42 43 44 45 48 51 56 63 71 79 83 87 91 95 95 94 95 97 98 98 99 98 97 96 95 95 94 92 89 85
56 55 53 51 49 47 45 44 43 42 41 38 35 33 34 37 42 44 43 42 41 41 41 40 40 40 41 42 45 47 50 55 59 64 70 75 80 82 83 85 89 92 93 92 93 93 92 92 90 87 84 82
58 57 55 53 52 49 47 46 45 42 37 32 29 30 34 38 40 41 39 38 37 36 35 34 33 33 34 35 36 38 40 41 42 44 47 50 54 57 59 61 67 73 75 76 79 79 80 80 79 78 76 75
Wind_Speed
22 22 22 24 24 24 24 24 24 24 24 23 24 24 24 24 24 24 23 23 22 22 21 22 22 21 22 22 22 22 22 22 23 23 24 23 23 22 21 20 20 20 20 19 19 19 19 19 19 19 19 19
23 23 23 23 24 24 24 24 24 24 23 23 23 24 23 23 24 24 24 23 23 23 23 23 23 23 22 22 23 23 23 24 24 24 24 24 23 22 21 20 20 20 19 19 19 19 19 20 20 20 20 20
22 22 22 23 23 23 23 24 24 24 23 22 23 23 23 23 24 24 24 23 23 23 24 24 24 23 23 23 24 24 25 25 25 25 25 24 23 22 21 21 20 20 19 19 19 20 20 20 20 20 20 20
20 20 21 22 21 21 22 22 23 23 22 22 22 23 23 23 24 24 24 24 24 24 25 25 24 24 24 25 25 25 25 25 25 25 25 24 23 22 21 21 20 20 20 20 20 20 21 21 20 20 20 20
19 19 20 20 21 21 21 21 22 23 23 22 22 22 23 23 23 24 24 24 25 25 25 25 25 25 25 25 25 25 26 26 26 26 26 25 24 23 22 22 21 21 20 20 21 21 21 21 21 21 20 20
19 19 20 20 20 20 21 21 21 22 23 23 23 23 23 24 24 24 25 25 26 26 26 26 26 26 26 26 26 26 26 26 27 27 26 26 25 24 24 22 22 22 21 21 21 21 22 22 21 21 21 21
20 20 20 20 20 20 21 21 21 22 23 24 24 25 25 25 25 25 26 26 27 27 27 27 27 28 28 28 28 28 27 28 28 27 27 27 27 26 25 24 23 23 22 22 22 22 22 22 23 22 22 22
19 20 20 21 21 21 21 21 22 22 23 24 25 26 26 26 27 27 27 28 28 29 29 29 29 30 29 29 29 29 29 29 29 28 28 28 28 27 26 25 24 24 23 23 23 23 23 23 23 23 23 23
20 20 20 21 22 22 22 23 23 24 24 25 26 26 27 28 28 28 29 29 30 31 31 31 31 31 30 30 30 30 29 29 29 29 28 28 28 27 27 26 25 24 24 23 23 23 24 24 24 24 24 24
21 22 22 23 23 24 24 25 25 25 26 26 27 27 28 29 29 30 30 31 31 32 32 33 32 32 31 30 30 30 29 29 29 29 29 28 28 28 27 27 26 25 25 25 24 24 24 25 25 25 25 25
23 23 24 24 25 26 26 27 27 28 28 28 28 29 30 31 31 32 32 33 33 34 34 34 34 33 32 31 30 30 30 30 30 31 30 30 29 29 29 28 28 27 27 26 26 26 25 26 26 26 26 26
25 25 26 26 27 28 28 29 29 30 30 30 31 32 33 33 34 34 35 35 35 36 36 35 35 34 33 32 31 31 31 31 32 32 31 31 31 31 31 30 30 29 29 28 28 28 27 27 27 27 27 28
28 28 28 29 29 30 30 31 31 32 32 32 33 34 35 36 37 37 37 37 37 38 37 37 37 36 35 33 32 32 32 32 33 33 33 32 32 32 32 32 32 31 31 31 30 30 30 29 29 29 29 29
30 30 31 31 31 32 32 33 33 34 34 34 35 36 37 38 39 39 39 39 39 40 39 38 38 37 36 35 34 33 33 34 34 34 34 34 34 34 34 34 34 34 33 33 32 32 32 31 31 31 31 31
32 33 33 33 33 34 34 34 35 35 35 36 36 37 38 39 40 40 40 41 40 40 40 39 39 38 37 36 36 36 35 35 36 36 36 36 36 36 36 36 35 35 35 34 34 34 33 32 32 32 32 32
34 34 35 35 35 35 35 35 35 35 36 36 37 38 39 39 40 41 42 42 41 41 41 40 40 39 38 38 37 37 37 37 38 38 38 38 38 37 37 37 37 36 36 36 35 35 35 34 34 33 33 33
35 35 36 35 35 35 35 35 35 36 37 37 38 39 40 40 41 42 43 43 42 42 42 42 41 41 40 40 39 39 39 39 39 39 39 39 39 39 39 38 38 38 38 38 37 37 37 36 36 36 35 35
35 35 35 34 34 34 34 35 36 36 37 38 39 40 41 42 43 44 45 45 44 43 43 43 43 42 42 41 40 40 40 40 41 41 41 41 41 41 41 41 40 40 40 39 39 39 39 38 38 38 38 37
34 34 34 33 33 34 34 35 36 37 38 39 40 41 42 43 44 45 45 46 45 44 44 44 44 43 42 42 41 41 41 42 42 42 43 43 43 43 43 43 42 42 42 41 41 41 40 40 40 40 40 40
33 33 32 32 33 34 34 35 36 37 38 39 39 40 41 42 43 44 44 45 45 45 44 44 44 44 44 43 43 42 42 43 43 44 44 44 45 45 45 44 44 44 43 43 42 42 42 42 41 41 42 42
31 31 31 32 33 34 35 36 37 37 38 38 39 39 40 41 42 43 43 44 44 44 44 44 44 45 45 45 44 44 44 43 44 44 45 45 46 46 46 46 45 45 45 44 43 43 43 43 43 43 43 44
31 32 32 33 34 35 36 36 37 37 37 38 38 39 39 40 41 42 42 43 43 44 44 44 44 44 45 45 45 45 45 45 44 44 45 46 46 46 46 47 47 47 46 45 45 46 45 45 45 46 46 46
33 33 34 34 35 35 35 35 35 35 36 36 37 37 38 38 39 40 41 41 42 43 43 43 43 43 44 44 44 45 45 45 45 44 45 46 46 46 47 47 48 48 48 47 48 48 48 48 48 48 48 48
34 34 35 35 35 34 35 35 35 35 35 35 35 36 37 37 38 38 39 40 41 41 42 42 42 42 43 44 44 44 43 43 44 44 44 45 46 47 47 48 49 49 49 49 49 49 49 49 49 48 48 49
36 36 36 35 35 35 35 35 35 35 34 35 35 35 36 37 37 38 39 39 40 40 41 41 41 41 41 43 44 44 42 42 42 43 44 45 46 47 47 48 48 49 50 50 50 50 50 50 49 49 49 49
37 37 36 36 36 36 35 35 35 34 34 35 35 35 36 37 38 38 39 39 39 39 40 40 39 39 40 41 42 43 43 42 42 42 43 44 45 46 47 48 48 49 50 51 51 51 51 51 51 51 50 49
38 38 38 37 37 36 36 35 35 34 34 35 36 36 37 38 38 38 38 38 38 38 38 38 38 38 38 39 41 42 42 42 42 43 43 44 45 46 47 48 49 50 51 51 52 52 53 52 52 51 50 50
39 39 39 38 37 36 36 35 35 35 35 36 37 38 38 39 39 38 38 37 37 37 37 37 37 37 37 38 39 41 42 42 43 44 44 45 46 46 48 49 50 50 51 52 52 53 53 53 53 52 52 52
39 38 38 37 37 36 36 36 35 35 36 37 38 39 39 39 38 38 37 37 36 36 36 36 36 36 37 37 38 39 41 42 43 44 45 45 46 47 48 49 50 50 50 51 52 53 53 53 54 54 54 53
37 37 37 37 36 36 36 36 36 36 37 38 38 39 38 38 37 37 36 36 36 35 35 35 35 35 35 36 36 37 39 40 41 43 44 45 46 47 47 48 49 50 50 51 52 52 53 54 54 55 55 54
36 37 37 36 36 36 35 35 36 36 37 37 37 37 37 36 36 35 35 35 34 34 33 33 33 33 33 33 34 35 36 37 39 40 41 42 44 45 46 47 48 48 49 49 50 51 52 53 53 54 55 55
Wind_Direction
265 261 257 256 257 258 258 259 259 259 260 259 257 255 254 252 251 250 248 248 248 250 252 255 254 254 258 263 266 270 273 276 278 279 280 280 280 281 281 281 279 279 277 274 269 263 258 255 253 252 252 252
262 261 258 256 256 257 258 257 258 258 258 257 255 253 249 246 245 245 244 244 245 247 249 252 255 256 258 261 265 268 271 273 275 277 278 278 279 280 281 280 279 278 276 273 268 263 258 254 251 250 250 250
255 257 257 256 256 256 257 257 258 258 258 256 254 252 248 244 242 242 241 242 244 246 249 252 256 258 259 261 264 267 269 272 274 275 277 278 279 279 279 278 278 277 274 270 267 263 258 253 250 249 248 249
255 256 257 257 257 257 257 256 256 256 256 255 253 251 249 245 243 242 242 242 244 247 250 253 256 258 259 261 264 267 269 271 273 275 275 276 277 276 275 275 276 275 273 269 265 262 258 254 251 249 248 249
257 258 258 258 258 257 256 255 254 254 254 253 251 250 248 246 244 243 243 244 246 249 251 253 256 258 260 263 265 266 269 271 272 273 273 274 274 274 274 274 275 274 272 269 265 263 259 256 253 251 250 250
256 257 258 259 259 258 258 257 255 253 253 253 251 250 249 247 246 245 246 247 249 251 252 254 256 259 261 263 265 266 268 269 270 271 271 272 273 274 275 275 275 274 272 270 267 265 262 259 256 253 252 251
255 256 257 259 260 260 260 259 257 255 254 253 252 251 251 250 250 250 251 252 253 253 254 255 257 259 262 263 265 266 267 268 269 269 269 270 271 273 275 275 275 274 273 271 269 267 264 261 258 255 253 252
257 256 257 258 259 260 259 258 257 255 254 253 252 252 252 252 253 253 254 254 255 255 255 256 257 258 260 262 263 264 265 265 266 266 266 267 269 271 272 273 273 273 272 271 269 267 264 262 259 257 255 253
261 260 258 258 257 257 257 256 255 253 253 252 252 252 252 252 253 252 252 252 253 254 255 256 256 257 258 259 261 262 263 263 263 264 264 265 267 269 270 270 271 271 271 271 269 268 266 264 261 259 257 255
260 259 258 257 256 255 254 254 254 253 252 251 251 252 252 252 252 252 251 252 252 253 255 256 256 257 258 258 260 262 263 262 262 263 264 265 266 268 269 270 270 271 271 271 270 269 268 266 263 261 259 257
258 257 256 255 255 254 253 253 253 253 252 251 251 251 251 251 250 251 251 252 252 253 254 255 256 256 257 257 259 261 262 261 261 262 263 265 267 268 270 270 271 271 271 272 271 271 270 268 266 264 262 260
258 257 256 255 254 254 253 252 252 252 252 251 250 250 250 250 250 250 251 251 252 253 253 254 255 255 256 257 258 259 260 259 260 261 263 265 266 268 269 270 271 271 272 272 272 272 272 271 270 268 266 263
258 257 255 254 254 254 253 252 252 252 251 250 250 249 250 250 251 250 251 251 252 253 254 254 255 255 256 257 257 257 258 258 259 261 262 264 265 266 268 269 270 271 272 272 273 273 273 272 272 271 269 267
259 257 256 255 254 253 253 253 252 252 251 250 250 249 250 250 251 251 251 252 253 254 255 255 256 257 257 257 257 258 257 257 258 259 261 262 264 265 267 268 269 270 270 270 271 271 271 271 271 271 270 268
258 257 256 255 255 254 254 253 253 254 253 253 252 251 251 251 252 252 252 252 253 254 255 256 256 257 258 259 259 258 258 257 257 258 259 260 262 263 265 266 267 268 268 269 269 270 270 270 271 271 270 269
257 257 256 256 256 256 255 255 255 256 256 256 256 256 255 255 254 254 254 254 255 256 256 257 258 259 260 260 260 259 258 257 257 257 258 259 260 261 263 264 265 266 267 268 269 269 270 271 272 272 272 272
255 256 256 256 256 256 257 257 257 258 258 259 259 259 259 259 259 259 259 259 258 258 259 259 259 260 260 260 259 259 258 257 257 257 258 258 260 261 262 263 264 265 266 268 269 270 271 272 272 273 274 274
254 255 256 257 257 258 258 259 259 259 259 260 260 261 262 262 263 263 265 265 265 264 263 263 262 262 261 260 260 259 259 258 258 259 259 259 260 261 261 262 263 264 265 267 269 270 271 272 273 274 274 275
255 256 257 258 259 260 261 261 261 262 262 262 262 263 264 265 266 267 268 270 270 270 269 268 267 266 264 263 261 260 259 259 259 259 259 259 259 260 261 261 262 263 265 266 268 269 271 272 273 274 275 276
257 257 258 259 261 262 263 264 265 265 266 266 266 267 267 268 269 269 270 271 272 272 272 272 271 270 269 266 264 261 260 259 259 258 259 259 259 260 261 262 263 264 265 266 268 269 271 272 273 274 276 276
259 258 259 260 262 264 265 266 267 268 269 269 270 270 270 270 270 271 271 272 272 273 273 272 272 272 271 270 268 266 263 261 260 260 259 260 260 261 262 263 264 265 266 267 269 270 271 272 274 275 277 277
260 260 260 261 263 264 265 266 268 269 271 271 272 273 273 273 273 273 273 273 273 273 273 272 272 271 271 272 271 270 269 267 265 264 264 264 263 264 265 266 266 266 267 269 271 272 273 274 275 276 277 278
261 261 262 263 264 265 267 269 270 272 273 274 274 275 275 275 275 275 274 274 273 272 272 272 271 271 270 271 271 271 272 271 269 269 269 268 267 267 268 269 269 268 268 270 272 273 273 273 274 275 277 278
261 262 263 264 266 268 270 272 273 274 275 276 276 276 275 275 274 274 273 272 272 271 270 270 270 269 269 269 270 271 271 271 270 270 270 269 268 268 269 271 272 271 270 271 272 272 272 272 273 274 275 276
261 262 264 266 268 270 272 273 273 274 275 275 276 276 276 275 274 273 272 271 271 270 270 269 269 268 267 267 268 270 271 270 270 269 269 269 269 270 270 271 272 273 273 273 273 273 272 273 273 273 273 273
259 261 263 265 267 269 270 270 271 272 273 275 276 276 276 275 274 274 273 272 271 271 270 270 269 268 267 266 267 269 270 271 270 270 270 270 270 270 270 270 271 272 273 273 274 274 274 273 272 272 273 273
258 259 261 262 264 265 266 267 268 269 272 273 275 275 275 274 274 273 273 273 272 271 271 270 269 268 267 266 266 267 269 270 270 270 270 271 271 271 270 269 269 270 271 272 273 274 274 273 273 274 274 273
256 256 257 259 260 262 263 264 266 268 271 273 274 274 274 274 273 273 272 272 272 272 271 270 269 268 267 266 266 266 267 268 268 269 269 270 270 270 270 270 270 270 271 272 273 274 274 275 275 275 273 273
253 253 254 256 258 260 261 262 265 268 270 272 274 274 274 273 272 271 271 271 271 271 270 269 269 268 267 266 266 265 266 266 267 267 267 268 268 269 269 269 270 270 271 272 273 273 274 274 274 274 273 273
251 251 252 253 255 257 259 261 264 267 269 271 272 272 271 271 270 270 270 270 270 270 270 269 268 268 267 266 266 265 266 266 266 267 267 267 268 268 268 269 269 269 270 270 271 272 272 273 273 274 274 274
249 249 250 251 253 255 257 260 263 265 267 268 269 269 268 268 268 269 269 269 269 269 269 269 269 268 268 268 268 267 267 267 268 268 269 269 269 270 270 271 271 271 271 271 271 272 273 274 274 275 276 276